Weather

Vsebine: Paragliding sitesCurrent conditionsCurrent conditions (amateur)Radar rainfal imageMeteo stationsPanoramic cameras


Current conditions (official report)

Show amateur stations

Click on a specific station to see its location

Location Weather conditions Temperature Wind Air pressure Last updated Geopedia
    °C direction speed (m/s) gusts (m/s) hPa    
Babno Polje 26   - - 2017-08-17 13:44:00
Babno Polje (756 m) 5   - - 2016-01-12 07:40:00
Bilje Nova Gorica 33   4 6 1017 2017-08-17 13:44:00
Bilje pri Novi Gorici 32   5 - 1017 2017-08-17 13:32:00
Blegoš 20   - - 2017-08-16 18:24:00
Bohinjska Češnjica 28   - - 2017-08-17 13:44:00
Boršt Gorenja vas 26   2 4 1018 2017-08-17 13:33:00
Bovec 28   3 5 1017 2017-08-17 13:35:00
Breginj 28   - - 2017-08-17 13:44:00
Bukovski vrh 24   - - 2017-08-17 13:44:00
Celje 28   1 3 1019 2017-08-17 13:33:00
Cerkniško jezero 28   - - 2017-08-17 13:44:00
Črnomelj 29   2 - 1019 2017-08-17 13:32:00
Davča 24   - - 2017-08-17 13:44:00
Dobliče Črnomelj 30   2 5 1019 2017-08-17 13:33:00
Dolenje Ajdovščina 32   1 4 2017-08-17 13:32:00
Gačnik 27   2 4 2017-08-17 13:44:00
Godnje 32   2 5 2017-08-17 13:44:00
Gornji Grad 27   - - 2017-08-17 13:44:00
Hočko Pohorje 25   - - 2017-08-17 13:43:00
Hrastnik 28   1 4 1018 2017-08-17 13:34:00
Idrija 28   - - 2017-08-17 13:43:00
Ilirska Bistrica 31   2 3 2017-08-17 13:31:00
Iskrba 28   1 4 2017-08-17 13:43:00
Jeronim 25   - - 2017-08-17 13:43:00
Jeruzalem 29   - - 2017-08-17 13:43:00
Jezersko 25   - - 2017-08-17 13:43:00
Juršče   - - 2016-09-13 14:33:00
Kamniška Bistrica 27   - - 2017-08-17 13:43:00
Kanin 13   - - 2017-08-17 13:43:00
Katarina nad Ljubljano 19   - - 2017-08-17 08:32:00
Kočevje 28   3 7 2017-08-17 13:43:00
Koper Kapitanija 33   3 5 1017 2017-08-17 13:35:00
Korensko sedlo 21   - - 2017-08-17 13:43:00
Kraj. park Goričko 27   3 5 2017-08-17 13:33:00
Kranj 29   - - 2017-08-17 13:43:00
Kredarica 11   2 3 2017-08-17 13:43:00
Krn 24   - - 2017-08-17 13:45:00
Krško 28   2 4 1019 2017-08-17 13:16:00
Krvavec 17   2 4 2017-08-17 13:43:00
Kubed 31   - - 2017-08-17 13:43:00
Kum 19   1 3 2017-08-16 08:44:00
Lendava 31   1 4 1019 2017-08-17 13:33:00
Let. E. Rusjana Maribor 27   2 4 1019 2017-08-17 13:35:00
Let. J. Pučnika Lj. 0   2 3 1011 2015-11-26 11:03:00
Let. J. Pučnika Ljubljana 28   1 4 1018 2017-08-17 13:34:00
Letališče Cerklje ob Krki 28   2 4 1019 2017-08-17 13:35:00
Letališče Edvarda Rusjana Maribor 27   2 - 1019 2017-08-17 13:32:00
Letališče Jožeta Pučnika Ljubljana 27   2 - 1018 2017-08-17 13:32:00
Letališče Lesce 26   3 - 1018 2017-08-17 13:32:00
Letališče Portorož 32   5 6 1017 2017-08-17 13:35:00
Lisca 25   1 4 2017-08-17 13:43:00
Lisca (943 m) 9   5 12 2016-03-29 14:02:00
Litija 29   - - 2017-08-17 13:43:00
Ljubljana 28   1 - 1018 2017-08-17 13:32:00
Logarska dolina 26   - - 2017-08-17 13:43:00
Logatec 26   - - 2017-08-17 13:43:00
Luka Koper 36   1 5 2017-08-17 13:32:00
Malkovec 28   1 4 1019 2017-08-17 13:35:00
Maribor 27   2 4 2017-08-17 13:43:00
Maribor - Tabor 28   2 5 2017-08-17 13:32:00
Marinča vas 29   - - 2017-08-17 13:44:00
Metlika 30   - - 2017-08-17 13:43:00
Mežica 24   - - 2017-08-17 13:43:00
Miklavž na Gorjancih 22   - - 2017-08-17 13:43:00
Murska Sobota 28   1 3 1019 2017-08-17 13:43:00
Nanos 21   4 8 2017-08-17 13:43:00
Nova Gorica 32   3 6 2017-08-17 13:34:00
Nova vas - Bloke 25   - - 2017-08-17 13:43:00
Novo mesto 29   1 4 1019 2017-08-17 13:43:00
Osilnica 30   - - 2017-08-17 13:43:00
Otlica 23   2 7 2017-08-17 13:33:00
Otlica (965 m) 7   4 7 2016-03-31 08:24:00
Park Škocj. jame 30   3 7 1017 2017-08-17 13:34:00
Pasja ravan 24   1 3 2017-08-17 13:43:00
Pavličevo sedlo 20   - - 2017-08-17 13:43:00
Piran-ocean. boja 28   4 5 2017-08-17 13:38:00
Planina pod Golico 13   - - 2017-08-17 07:34:00
Podčetrtek 28   1 3 1019 2017-08-17 13:33:00
Podnanos 34   3 6 2017-08-17 13:43:00
Postojna 27   2 5 1017 2017-08-17 13:43:00
Predel 22   - - 2017-08-17 13:43:00
Ptuj 28   1 3 2017-08-17 13:43:00
Ptuj - Terme -2   2 3 2017-01-19 14:35:00
Radegunda 25   - - 2017-08-10 11:04:00
Radenci 29   - - 1020 2017-08-17 13:33:00
Rateče 25   1 - 2017-08-17 13:32:00
Rateče (864 m) 26   1 3 2017-08-17 13:33:00
Ratitovec 17   3 5 2017-08-17 13:43:00
Ravne na Koroškem 25   1 3 2017-08-17 13:35:00
Rogaška Slatina 28   1 3 2017-08-17 13:43:00
Rogla 17   2 5 2017-08-17 13:43:00
Rogla (1492 m) -11   4 7 2016-01-18 10:32:00
Rudno polje 19   1 4 2017-08-17 13:43:00
Rudno polje (1347 m) -2   1 3 2015-10-20 07:36:00
Sevno 27   - - 2017-08-17 13:43:00
Slavnik 25   5 8 2017-08-17 13:43:00
Slovenj Gradec 24   1 - 2017-08-17 13:32:00
Slovenske Konjice 28   - - 2017-08-17 13:43:00
Sviščaki 22   2 4 2017-08-17 13:43:00
Šebreljski vrh 22   - - 2017-08-17 13:43:00
Šmartno pri Slovenj Gradcu 26   1 2 2017-08-17 13:43:00
Tatre 27   - - 2017-08-17 13:43:00
Tolmin - Volče 30   3 8 2017-08-17 13:43:00
Topol 25   - - 2017-08-17 13:43:00
Trebnje 29   - - 2017-08-17 13:43:00
Trije Kralji na Pohorju 19   - - 2017-08-17 13:43:00
Trojane - Limovce 26   2 4 1018 2017-08-17 13:43:00
Uršlja gora 17   2 5 2017-08-17 13:43:00
Vedrijan 30   - - 2017-08-17 13:43:00
Velenje 27   - - 2017-08-17 13:43:00
Velike Lašče 27   4 7 2017-08-17 13:43:00
Vogel 20   1 3 2017-08-17 13:43:00
Vojsko 17   - - 2017-08-17 08:32:00
Vrbanski plato -2   2 3 2016-12-07 11:23:00
Vrhnika 28   2 4 2017-08-17 13:43:00
Vršič 18   - - 2017-08-17 13:43:00
Zadlog 25   - - 2017-08-17 13:44:00
Zelenica 17   - - 2017-08-17 13:43:00
Zgornja Kapla 24   2 6 2017-08-17 13:43:00
Zgornja Radovna 25   - - 2017-08-17 13:43:00
Zgornja Sorica 24   - - 2017-08-17 13:43:00
Source: Slovenian Environmental Agency, meteo.si